K7JKM Weather Reports


time (UTC)temp
F
wind
direction
speed
knots
gust
knots
rain 1hr
in
rain 24hr
in
rain mn
in
humidity
%
barometer
mb
20260509024526 66 117 0.0 1.7 0.00 0.00 0.00 48 1021.3
20260509023024 67 187 0.0 0.9 0.00 0.00 0.00 45 1021.3
20260509021522 68 243 0.0 0.0 0.00 0.00 0.00 44 1021.2
20260509020002 68 198 0.0 0.9 0.00 0.00 0.00 44 1021.2
20260509014513 68 274 0.0 4.3 0.00 0.00 0.00 42 1021.2
20260509013010 69 219 0.0 0.9 0.00 0.00 0.00 41 1021.3
20260509011508 71 299 0.0 0.9 0.00 0.00 0.00 38 1021.4
20260509010003 70 300 0.0 3.5 0.00 0.00 0.00 39 1021.5
20260509004508 71 11 0.9 3.5 0.00 0.00 0.00 38 1021.5
20260509003006 72 307 0.0 1.7 0.00 0.00 0.00 38 1021.5
20260509001503 71 195 0.0 1.7 0.00 0.00 0.00 39 1021.6
20260509000018 70 305 0.0 2.6 0.00 0.00 0.00 39 1021.7
20260508234513 70 203 0.0 2.6 0.00 0.00 0.00 39 1021.8
20260508233011 69 316 0.0 4.3 0.00 0.00 0.00 39 1021.9
20260508231513 69 135 0.0 4.3 0.00 0.00 0.00 40 1021.9
20260508230005 70 7 0.0 1.7 0.00 0.00 0.00 38 1021.9
20260508224505 68 324 0.0 3.5 0.00 0.00 0.00 40 1021.9
20260508223010 68 129 0.0 1.7 0.00 0.00 0.00 39 1021.9
20260508221522 70 103 0.0 1.7 0.00 0.00 0.00 37 1022.0
20260508220022 69 142 0.0 2.6 0.00 0.00 0.00 40 1022.2
20260508214518 68 83 0.0 1.7 0.00 0.00 0.00 38 1022.2
20260508213015 70 285 0.0 2.6 0.00 0.00 0.00 36 1022.3
20260508211512 69 204 0.0 2.6 0.00 0.00 0.00 38 1022.3
20260508210009 69 236 0.0 1.7 0.00 0.00 0.00 37 1022.3
20260508204510 66 149 0.0 2.6 0.00 0.00 0.00 42 1022.3
20260508203028 65 295 0.0 3.5 0.00 0.00 0.00 43 1022.3
20260508201524 65 309 0.0 1.7 0.00 0.00 0.00 42 1022.5
20260508200021 64 20 0.0 0.9 0.00 0.00 0.00 42 1022.5
20260508194518 63 70 0.0 0.9 0.00 0.00 0.00 45 1022.7
20260508193016 61 299 0.0 1.7 0.00 0.00 0.00 48 1022.8
20260508191530 60 64 0.0 1.7 0.00 0.00 0.00 48 1022.9
20260508190008 59 120 0.0 0.9 0.00 0.00 0.00 49 1022.9
20260508184528 59 304 0.0 2.6 0.00 0.00 0.00 51 1023.1
20260508183032 59 311 0.0 1.7 0.00 0.00 0.00 48 1023.0
20260508181523 59 316 0.0 1.7 0.00 0.00 0.00 49 1022.9
20260508180024 61 314 0.0 0.9 0.00 0.00 0.00 48 1022.8
20260508174519 59 158 0.0 2.6 0.00 0.00 0.00 49 1022.7
20260508173018 57 174 0.0 0.9 0.00 0.00 0.00 53 1022.6
20260508171512 57 134 0.0 0.9 0.00 0.00 0.00 52 1022.6
20260508170024 57 204 0.0 2.6 0.00 0.00 0.00 53 1022.4
20260508164511 56 157 0.0 2.6 0.00 0.00 0.00 55 1022.3
20260508163004 55 225 0.0 0.9 0.00 0.00 0.00 57 1022.2
20260508161505 54 127 0.0 0.9 0.00 0.00 0.00 59 1022.0
20260508160011 53 157 0.0 2.6 0.00 0.00 0.00 59 1021.6
20260508154520 53 141 0.0 1.7 0.00 0.00 0.00 59 1021.9
20260508153020 53 133 0.0 2.6 0.00 0.00 0.00 60 1021.7
20260508151516 51 118 0.0 1.7 0.00 0.00 0.00 61 1021.8
20260508150020 51 154 0.0 0.9 0.00 0.00 0.00 61 1021.8
20260508144511 51 99 0.0 0.9 0.00 0.00 0.00 61 1021.8
20260508143013 51 104 0.0 0.9 0.00 0.00 0.00 62 1021.9
20260508141507 50 128 0.0 0.9 0.00 0.00 0.00 62 1021.9
20260508140024 50 148 0.0 0.9 0.00 0.00 0.00 63 1021.9
20260508134525 49 192 0.0 0.0 0.00 0.00 0.00 64 1021.5
20260508133024 48 122 0.0 0.9 0.00 0.00 0.00 64 1021.1
20260508131517 48 243 0.0 0.0 0.00 0.00 0.00 64 1021.0
20260508130020 48 127 0.0 0.9 0.00 0.00 0.00 64 1020.7
20260508124511 48 230 0.0 0.0 0.00 0.00 0.00 64 1020.4
20260508123029 49 223 0.0 1.7 0.00 0.00 0.00 64 1020.1
20260508121528 49 168 0.0 0.9 0.00 0.00 0.00 64 1019.8
20260508120035 49 308 0.0 2.6 0.00 0.00 0.00 65 1019.6
20260508114526 49 169 0.0 1.7 0.00 0.00 0.00 65 1019.6
20260508113024 49 210 0.0 0.0 0.00 0.00 0.00 65 1019.6
20260508111527 49 275 0.0 0.9 0.00 0.00 0.00 65 1019.4
20260508110019 49 234 0.0 0.9 0.00 0.00 0.00 65 1019.1
20260508104530 49 231 0.0 0.0 0.00 0.00 0.00 65 1019.0
20260508103028 49 133 0.0 0.0 0.00 0.00 0.00 65 1018.9
20260508101506 49 330 0.0 0.9 0.00 0.00 0.00 65 1018.8
20260508100006 49 165 0.0 0.0 0.00 0.00 0.00 65 1018.6
20260508094505 49 238 0.0 0.0 0.00 0.00 0.00 65 1018.6
20260508093024 49 303 0.0 0.9 0.00 0.00 0.00 64 1018.3
20260508091524 50 147 0.0 3.5 0.00 0.00 0.00 63 1018.1
20260508090018 50 314 0.9 5.2 0.00 0.00 0.00 62 1018.2
20260508084516 50 281 0.0 3.5 0.00 0.00 0.00 63 1018.3
20260508083012 50 158 0.0 2.6 0.00 0.00 0.00 63 1018.2
20260508081510 50 129 0.0 0.9 0.00 0.00 0.00 62 1018.0
20260508080007 51 264 0.0 0.9 0.00 0.00 0.00 62 1017.9
20260508074526 51 243 0.0 2.6 0.00 0.00 0.00 61 1017.8
20260508073025 51 224 0.0 0.9 0.00 0.00 0.00 61 1017.5
20260508071522 51 141 0.0 0.9 0.00 0.00 0.00 61 1017.4
20260508070020 52 135 0.0 0.0 0.00 0.00 0.00 60 1017.5
20260508064525 52 162 0.0 0.9 0.00 0.00 0.00 59 1017.4
20260508063013 53 195 0.0 0.9 0.00 0.00 0.00 59 1017.4
20260508061512 53 244 0.0 0.9 0.00 0.00 0.00 58 1017.2
20260508060029 54 325 0.0 2.6 0.00 0.00 0.00 58 1017.3
20260508054527 54 291 0.0 1.7 0.00 0.00 0.00 57 1017.4
20260508053030 55 222 0.0 0.9 0.00 0.00 0.00 56 1017.4
20260508051530 56 221 0.0 0.9 0.00 0.00 0.00 55 1017.3
20260508050021 56 215 0.0 3.5 0.00 0.00 0.00 55 1017.3
20260508044518 57 324 0.0 0.9 0.00 0.00 0.00 53 1017.3
20260508043020 58 337 0.0 0.9 0.00 0.00 0.00 52 1017.3
20260508041528 58 214 0.0 0.9 0.00 0.00 0.00 51 1017.1
20260508040029 59 319 0.0 2.6 0.00 0.00 0.00 50 1016.8
20260508034504 60 314 0.0 1.7 0.00 0.00 0.00 50 1016.7
20260508033004 62 272 0.0 2.6 0.00 0.00 0.00 49 1016.6
20260508031504 63 325 0.0 3.5 0.00 0.00 0.00 48 1016.4
20260508030003 65 321 0.0 1.7 0.00 0.00 0.00 46 1016.5